Weather History for KE11 - May, 2013

Change the Weather History Date:

Thursday, May 9, 2013

  Actual Average (KMAF) Record (KMAF)
Temperature  
Mean Temperature 76 °F 72 °F  
Max Temperature 87 °F 86 °F 101 °F (1967)
Min Temperature 64 °F 57 °F 42 °F (1969)
Cooling Degree Days 11 7  
Month to date cooling degree days 57  
Year to date cooling degree days 165  
Growing Degree Days 26 (Base 50)    
Moisture  
Dew Point 32 °F    
Average Humidity 24    
Maximum Humidity 67    
Minimum Humidity 9    
Precipitation  
Precipitation 0.00 in 0.04 in 4.75 in (1968)
Month to date precipitation 0.30  
Year to date precipitation 2.82  
Sea Level Pressure  
Sea Level Pressure 29.93 in    
Wind  
Wind Speed 9 mph (WSW)    
Max Wind Speed 20 mph    
Max Gust Speed 28 mph    
Visibility 10 miles    
Events      
T = Trace of Precipitation, MM = Missing Value Source: NWS Daily Summary

Daily Weather History Graph

Daily Weather History Graph

Search for Another Location

Airport or City:

Trip Planner

Search our weather history database for the weather conditions in past years. The results will help you decide how hot, cold, wet, or windy it might be!

Date:

Astronomy

May. 09, 2013 Rise Set
Actual Time 6:56 AM CDT 8:37 PM CDT
Civil Twilight 6:29 AM CDT 9:03 PM CDT
Nautical Twilight 5:57 AM CDT 9:35 PM CDT
Astronomical Twilight 5:24 AM CDT 10:09 PM CDT
Moon 6:40 AM CDT (5/9) 8:34 PM CDT (5/9)
Length of Visible Light 14h 34m
Length of Day
13h 40m
Waning Crescent, 0% of the Moon is Illuminated
May 9
Waning Crescent
May 9
New
May 17
First Quarter
May 24
Full
May 31
Last Quarter

Hourly Weather History & Observations

Time (CDT) Temp. Dew Point Humidity Pressure Visibility Wind Dir Wind Speed Gust Speed Precip Events Conditions
12:55 AM 73.8 °F 19.2 °F 13% 29.92 in 10.0 mi West 11.5 mph 24.2 mph N/A   Clear
1:15 AM 73.4 °F 19.8 °F 13% 29.94 in 10.0 mi South 6.9 mph - N/A   Scattered Clouds
1:55 AM 73.4 °F 20.3 °F 14% 29.94 in 10.0 mi SW 8.1 mph - N/A   Scattered Clouds
2:15 AM 73.4 °F 23.2 °F 15% 29.93 in 10.0 mi WSW 5.8 mph - N/A   Mostly Cloudy
2:35 AM 72.5 °F 21.7 °F 15% 29.93 in 10.0 mi SSW 8.1 mph - N/A   Mostly Cloudy
3:15 AM 71.4 °F 38.1 °F 30% 29.92 in 10.0 mi SW 6.9 mph - N/A   Scattered Clouds
3:55 AM 70.2 °F 53.2 °F 55% 29.93 in 10.0 mi SW 9.2 mph - N/A   Scattered Clouds
4:35 AM 69.4 °F 54.5 °F 59% 29.93 in 10.0 mi SW 8.1 mph - N/A   Clear
6:15 AM 67.5 °F 55.2 °F 65% 29.93 in 10.0 mi SW 11.5 mph - N/A   Clear
6:55 AM 67.6 °F 54.9 °F 64% 29.93 in 10.0 mi SW 6.9 mph - N/A   Mostly Cloudy
7:55 AM 68.2 °F 45.5 °F 44% 29.96 in 10.0 mi WNW 3.5 mph - N/A   Mostly Cloudy
8:15 AM 70.0 °F 35.8 °F 29% 29.95 in 10.0 mi West 3.5 mph - N/A   Scattered Clouds
9:15 AM 74.3 °F 29.3 °F 19% 29.98 in 10.0 mi West 13.8 mph 20.7 mph N/A   Mostly Cloudy
9:55 AM 76.1 °F 31.3 °F 19% 29.97 in 10.0 mi WSW 12.7 mph 21.9 mph N/A   Clear
10:35 AM 77.9 °F 32.0 °F 19% 29.97 in 10.0 mi WSW 11.5 mph 20.7 mph N/A   Clear
10:55 AM 76.6 °F 31.1 °F 19% 29.97 in 10.0 mi North - - N/A   Clear
11:15 AM 79.9 °F 31.3 °F 17% 29.97 in 10.0 mi SW 16.1 mph 23.0 mph N/A   Clear
11:35 AM 80.8 °F 30.6 °F 16% 29.97 in 10.0 mi SSW 11.5 mph 21.9 mph N/A   Clear
12:15 PM 82.2 °F 29.3 °F 15% 29.97 in 10.0 mi WSW 12.7 mph 21.9 mph N/A   Clear
12:35 PM 81.9 °F 28.0 °F 14% 29.95 in 10.0 mi Calm Calm - N/A   Clear
12:55 PM 83.1 °F 28.4 °F 14% 29.95 in 10.0 mi WNW 10.4 mph 20.7 mph N/A   Clear
1:15 PM 84.7 °F 28.9 °F 13% 29.94 in 10.0 mi WSW 12.7 mph - N/A   Clear
1:35 PM 84.4 °F 28.4 °F 13% 29.94 in 10.0 mi WSW 15.0 mph 21.9 mph N/A   Clear
1:55 PM 84.4 °F 27.7 °F 13% 29.93 in 10.0 mi South 10.4 mph 26.5 mph N/A   Clear
2:35 PM 85.1 °F 24.6 °F 11% 29.92 in 10.0 mi WNW 5.8 mph - N/A   Clear
3:15 PM 85.3 °F 21.2 °F 9% 29.91 in 10.0 mi West 18.4 mph 23.0 mph N/A   Clear
3:35 PM 86.2 °F 21.6 °F 9% 29.90 in 10.0 mi West 10.4 mph 16.1 mph N/A   Clear
3:55 PM 87.1 °F 22.3 °F 9% 29.90 in 10.0 mi West 16.1 mph 24.2 mph N/A   Clear
4:15 PM 86.2 °F 22.8 °F 10% 29.89 in 10.0 mi West 19.6 mph 27.6 mph N/A   Clear
4:35 PM 86.7 °F 23.0 °F 10% 29.89 in 10.0 mi West 16.1 mph 25.3 mph N/A   Clear
4:55 PM 87.4 °F 24.1 °F 10% 29.89 in 10.0 mi West 12.7 mph 20.7 mph N/A   Clear
5:15 PM 86.0 °F 22.6 °F 10% 29.89 in 10.0 mi WNW 11.5 mph 26.5 mph N/A   Clear
5:35 PM 85.3 °F 22.8 °F 10% 29.89 in 10.0 mi WSW 8.1 mph 20.7 mph N/A   Clear
5:55 PM 85.6 °F 22.5 °F 10% 29.88 in 10.0 mi SW 5.8 mph 20.7 mph N/A   Clear
6:15 PM 83.8 °F 22.6 °F 11% 29.88 in 10.0 mi West 12.7 mph 23.0 mph N/A   Clear
6:35 PM 82.9 °F 23.5 °F 11% 29.89 in 10.0 mi West 12.7 mph 18.4 mph N/A   Clear
6:55 PM 83.3 °F 23.5 °F 11% 29.89 in 10.0 mi WSW 5.8 mph - N/A   Clear
7:15 PM 84.2 °F 23.9 °F 11% 29.89 in 10.0 mi SW 9.2 mph - N/A   Clear
7:35 PM 83.5 °F 23.9 °F 11% 29.89 in 10.0 mi WSW 6.9 mph - N/A   Clear
7:55 PM 83.1 °F 23.4 °F 11% 29.89 in 10.0 mi WSW 6.9 mph - N/A   Clear
8:15 PM 82.4 °F 22.8 °F 11% 29.89 in 10.0 mi West 3.5 mph - N/A   Clear
8:35 PM 80.6 °F 23.9 °F 12% 29.90 in 10.0 mi WNW 5.8 mph - N/A   Clear
8:55 PM 79.0 °F 23.9 °F 13% 29.91 in 10.0 mi Calm Calm - N/A   Clear
9:15 PM 75.2 °F 23.0 °F 14% 29.91 in 10.0 mi Calm Calm - N/A   Clear
9:35 PM 72.9 °F 43.9 °F 35% 29.93 in 10.0 mi East 12.7 mph 17.3 mph N/A   Clear
9:55 PM 70.9 °F 51.3 °F 50% 29.93 in 10.0 mi ESE 8.1 mph - N/A   Clear
10:15 PM 69.6 °F 52.3 °F 54% 29.94 in 10.0 mi ESE 8.1 mph - N/A   Clear
10:35 PM 68.4 °F 54.1 °F 60% 29.95 in 10.0 mi ESE 9.2 mph - N/A   Clear
10:55 PM 67.1 °F 54.7 °F 64% 29.96 in 10.0 mi SE 10.4 mph - N/A   Clear
11:15 PM 65.8 °F 54.3 °F 66% 29.96 in 10.0 mi ESE 8.1 mph - N/A   Clear
11:35 PM 64.8 °F 53.6 °F 67% 29.96 in 10.0 mi ESE 8.1 mph - N/A   Clear